EW6604 Weather Reports


Display with metric or nautical units.
time (UTC)temp
F
wind
direction
speed
MPH
gust
MPH
rain 1hr
in
rain 24hr
in
rain mn
in
humidity
%
barometer
mb
20260502170227 82 272 8.0 13.0 0.00 0.00 0.00 73 1010.0
20260502164217 82 250 2.0 8.0 0.00 0.00 0.00 73 1010.0
20260502163715 82 281 3.0 8.0 0.00 0.00 0.00 73 1010.0
20260502163220 82 277 4.0 8.0 0.00 0.00 0.00 73 1009.9
20260502162724 82 272 2.0 6.0 0.00 0.00 0.00 73 1010.0
20260502162230 82 269 3.0 6.0 0.00 0.00 0.00 73 1009.9
20260502161725 82 314 2.0 14.0 0.00 0.00 0.00 72 1009.7
20260502161228 81 156 4.0 14.0 0.00 0.00 0.00 72 1009.8
20260502160747 81 246 4.0 9.0 0.00 0.00 0.00 73 1009.8
20260502160213 81 133 4.0 7.0 0.00 0.00 0.00 73 1009.9
20260502152222 79 52 2.0 7.0 0.00 0.00 0.00 78 1010.1
20260502151744 79 298 3.0 7.0 0.00 0.00 0.00 77 1010.2
20260502151226 79 312 3.0 7.0 0.00 0.00 0.00 79 1010.3
20260502150731 78 210 2.0 8.0 0.00 0.00 0.00 78 1010.2
20260502150214 78 168 3.0 9.0 0.00 0.00 0.00 80 1010.3
20260502130725 74 319 1.0 4.0 0.00 0.00 0.00 92 1010.3
20260502130218 74 126 1.0 5.0 0.00 0.00 0.00 92 1010.2
20260502123222 72 209 1.0 4.0 0.00 0.00 0.00 94 1009.9
20260502122746 72 200 1.0 3.0 0.00 0.00 0.00 94 1009.8
20260502122230 72 189 1.0 3.0 0.00 0.00 0.00 94 1009.8
20260502121714 72 149 1.0 3.0 0.00 0.00 0.00 94 1009.7
20260502121220 72 111 0.0 3.0 0.00 0.00 0.00 94 1009.6
20260502120749 72 131 1.0 3.0 0.00 0.00 0.00 94 1009.6
20260502120217 71 163 1.0 3.0 0.00 0.00 0.00 95 1009.6
20260502115722 71 155 0.0 3.0 0.00 0.00 0.00 94 1009.5
20260502115225 71 154 0.0 1.0 0.00 0.00 0.00 95 1009.5
20260502114730 71 159 0.0 1.0 0.00 0.00 0.00 95 1009.6
20260502114214 71 172 0.0 0.0 0.00 0.00 0.00 95 1009.7
20260502113720 70 171 0.0 0.0 0.00 0.00 0.00 95 1009.6
20260502113226 70 219 0.0 0.0 0.00 0.00 0.00 95 1009.8
20260502112751 70 221 0.0 0.0 0.00 0.00 0.00 95 1009.8
20260502112215 70 203 0.0 0.0 0.00 0.00 0.00 95 1009.6
20260502111720 70 203 0.0 0.0 0.00 0.00 0.00 95 1009.7
20260502111224 70 202 0.0 0.0 0.00 0.00 0.00 95 1009.6
20260502110729 69 202 0.0 0.0 0.00 0.00 0.00 95 1009.6
20260502110217 69 202 0.0 0.0 0.00 0.00 0.00 95 1009.5
20260502105722 69 202 0.0 0.0 0.00 0.00 0.00 94 1009.4
20260502105227 69 202 0.0 0.0 0.00 0.00 0.00 94 1009.2
20260502104731 69 202 0.0 0.0 0.00 0.00 0.00 94 1009.2
20260502104215 69 203 0.0 0.0 0.00 0.00 0.00 94 1009.2
20260502103740 69 203 0.0 0.0 0.00 0.00 0.00 94 1009.0
20260502103245 70 203 0.0 0.0 0.00 0.00 0.00 94 1008.8
20260502102729 70 203 0.0 0.0 0.00 0.00 0.00 94 1008.6
20260502102213 70 203 0.0 0.0 0.00 0.00 0.00 94 1008.5
20260502101223 70 202 0.0 0.0 0.00 0.00 0.00 94 1008.8
20260502100735 70 203 0.0 1.0 0.00 0.00 0.00 94 1008.7
20260502100219 70 202 0.0 1.0 0.00 0.00 0.00 94 1008.8
20260502091213 71 159 0.0 0.0 0.00 0.00 0.00 92 1009.2
20260502090737 71 158 0.0 2.0 0.00 0.00 0.00 91 1009.4
20260502090240 72 158 1.0 3.0 0.00 0.00 0.00 91 1009.5
20260502071232 72 344 4.0 6.0 0.00 0.00 0.00 92 1010.3
20260502070721 72 356 3.0 5.0 0.00 0.00 0.00 92 1010.2
20260502070224 72 357 4.0 5.0 0.00 0.00 0.00 92 1010.1
20260502065727 73 14 3.0 5.0 0.00 0.00 0.00 92 1010.2
20260502065252 73 21 2.0 3.0 0.00 0.00 0.00 92 1010.2
20260502064715 73 37 2.0 5.0 0.00 0.00 0.00 92 1010.1
20260502064221 73 16 3.0 5.0 0.00 0.00 0.00 92 1010.2
20260502063723 72 47 4.0 5.0 0.00 0.00 0.00 92 1010.2
20260502063249 73 40 2.0 4.0 0.00 0.00 0.00 92 1010.3
20260502062752 72 22 2.0 3.0 0.00 0.00 0.00 92 1010.5
20260502062234 73 347 1.0 3.0 0.00 0.00 0.00 92 1010.6
20260502061738 73 17 2.0 3.0 0.00 0.00 0.00 92 1010.7
20260502061221 73 321 3.0 3.0 0.00 0.00 0.00 92 1010.8
20260502060716 73 35 0.0 4.0 0.00 0.00 0.00 92 1010.8
20260502060221 73 34 3.0 6.0 0.00 0.00 0.00 92 1010.6
20260502055725 73 30 4.0 8.0 0.00 0.00 0.00 92 1010.7
20260502055213 73 35 5.0 8.0 0.00 0.00 0.00 92 1010.8
20260502054718 73 4 6.0 8.0 0.00 0.00 0.00 91 1010.8
20260502054223 73 29 6.0 8.0 0.00 0.00 0.00 91 1010.8
20260502053748 73 25 7.0 9.0 0.00 0.00 0.00 92 1010.8
20260502053231 73 5 7.0 9.0 0.00 0.00 0.00 90 1010.9
20260502052716 73 23 8.0 9.0 0.00 0.00 0.00 90 1010.9
20260502052220 73 30 7.0 9.0 0.00 0.00 0.00 90 1010.9
20260502051725 73 30 7.0 9.0 0.00 0.00 0.00 90 1011.0
20260502051229 74 25 6.0 8.0 0.00 0.00 0.00 89 1011.0
20260502050714 74 11 7.0 8.0 0.00 0.00 0.00 88 1011.0
20260502050219 74 360 5.0 7.0 0.00 0.00 0.00 88 1011.1
20260502045724 74 26 6.0 8.0 0.00 0.00 0.00 87 1011.0
20260502045232 74 15 5.0 8.0 0.00 0.00 0.00 87 1011.2
20260502044716 75 14 7.0 8.0 0.00 0.00 0.00 86 1011.2
20260502044220 75 44 4.0 9.0 0.00 0.00 0.00 86 1011.1
20260502043724 74 1 6.0 9.0 0.00 0.00 0.00 87 1011.1
20260502043227 74 208 0.0 0.0 0.00 0.00 0.00 86 1011.2
20260502042731 73 208 0.0 1.0 0.00 0.00 0.00 86 1011.2
20260502042215 73 208 0.0 1.0 0.00 0.00 0.00 86 1011.1
20260502041718 73 208 0.0 1.0 0.00 0.00 0.00 86 1011.0
20260502041223 73 207 0.0 1.0 0.00 0.00 0.00 86 1010.8
20260502040719 73 208 0.0 2.0 0.00 0.00 0.00 86 1010.8
20260502020217 76 100 2.0 8.0 0.00 0.00 0.00 80 1011.0
20260502015720 76 147 3.0 6.0 0.00 0.00 0.00 80 1011.0
20260502015223 76 121 3.0 6.0 0.00 0.00 0.00 80 1011.0
20260502014748 76 169 2.0 6.0 0.00 0.00 0.00 81 1011.1
20260502014231 77 128 3.0 8.0 0.00 0.00 0.00 80 1011.2
20260502013730 77 93 2.0 8.0 0.00 0.00 0.00 81 1011.1
20260502013232 77 118 4.0 9.0 0.00 0.00 0.00 81 1011.2
20260502012752 77 80 8.0 9.0 0.00 0.00 0.00 81 1011.2
20260502012233 77 81 7.0 8.0 0.00 0.00 0.00 81 1011.1
20260502011715 78 77 6.0 9.0 0.00 0.00 0.00 80 1011.2
20260502011225 78 74 7.0 9.0 0.00 0.00 0.00 79 1011.2
20260502010732 78 66 6.0 9.0 0.00 0.00 0.00 80 1011.3
20260502005744 78 80 8.0 10.0 0.00 0.00 0.00 78 1011.2
20260502005232 78 77 7.0 10.0 0.00 0.00 0.00 79 1011.1
20260502004741 78 80 7.0 9.0 0.00 0.00 0.00 78 1011.1
20260502003724 78 81 3.0 8.0 0.00 0.00 0.00 78 1010.9
20260502003230 78 76 4.0 11.0 0.00 0.00 0.00 77 1011.0
20260502002732 78 67 6.0 11.0 0.00 0.00 0.00 77 1010.8
20260502002218 78 61 7.0 8.0 0.00 0.00 0.00 77 1010.7
20260502001722 78 63 6.0 9.0 0.00 0.00 0.00 77 1010.6
20260502001227 78 70 7.0 10.0 0.00 0.00 0.00 78 1010.5
20260502000722 79 70 8.0 10.0 0.00 0.00 0.00 78 1010.4
20260502000228 79 70 9.0 10.0 0.00 0.00 0.00 78 1010.3
20260501235716 79 54 7.0 9.0 0.00 0.00 0.00 77 1010.3
20260501235221 79 57 6.0 9.0 0.00 0.00 0.00 78 1010.4
20260501234725 79 63 7.0 11.0 0.00 0.00 0.00 76 1010.3
20260501234250 79 66 8.0 11.0 0.00 0.00 0.00 76 1010.2
20260501233713 79 83 9.0 11.0 0.00 0.00 0.00 77 1010.1
20260501233219 79 70 9.0 11.0 0.00 0.00 0.00 76 1010.0
20260501232723 80 85 8.0 13.0 0.00 0.00 0.00 77 1009.9
20260501232228 80 69 8.0 13.0 0.00 0.00 0.00 76 1009.9
20260501231732 80 73 10.0 15.0 0.00 0.00 0.00 75 1009.8
20260501231218 80 88 11.0 15.0 0.00 0.00 0.00 76 1009.6
20260501230706 80 88 12.0 15.0 0.00 0.00 0.00 75 1009.4
20260501230229 80 77 12.0 16.0 0.00 0.00 0.00 75 1009.4
20260501225712 80 78 14.0 17.0 0.00 0.00 0.00 75 1009.4
20260501225217 81 72 12.0 17.0 0.00 0.00 0.00 76 1009.3
20260501224741 81 83 13.0 16.0 0.00 0.00 0.00 76 1009.2
20260501224205 81 71 14.0 16.0 0.00 0.00 0.00 74 1009.2
20260501223710 81 71 11.0 14.0 0.00 0.00 0.00 73 1009.2
20260501223215 82 75 10.0 15.0 0.00 0.00 0.00 73 1009.2
20260501222717 82 86 11.0 16.0 0.00 0.00 0.00 72 1009.1
20260501222218 82 85 13.0 17.0 0.00 0.00 0.00 69 1009.1
20260501221723 82 89 13.0 18.0 0.00 0.00 0.00 70 1008.9
20260501221207 83 90 14.0 20.0 0.00 0.00 0.00 72 1008.8
20260501220723 83 75 16.0 24.0 0.00 0.00 0.00 71 1008.7
20260501220212 85 75 14.0 24.0 0.00 0.00 0.00 62 1008.5
20260501215733 86 32 15.0 19.0 0.00 0.06 0.00 63 1008.5
20260501215218 90 65 3.0 7.0 0.00 0.06 0.00 45 1008.6
20260501214722 90 306 1.0 10.0 0.00 0.06 0.00 49 1008.5
20260501213724 90 302 5.0 11.0 0.00 0.06 0.00 48 1008.4
20260501213206 90 270 4.0 9.0 0.00 0.06 0.00 47 1008.4
20260501212711 90 296 3.0 5.0 0.00 0.06 0.00 55 1008.4
20260501212214 89 267 3.0 4.0 0.00 0.06 0.00 49 1008.4
20260501211710 89 36 1.0 4.0 0.00 0.06 0.00 53 1008.4
20260501211223 89 355 2.0 5.0 0.00 0.06 0.00 54 1008.4
20260501210717 89 314 3.0 5.0 0.00 0.06 0.00 52 1008.3
20260501210220 89 336 1.0 6.0 0.00 0.06 0.00 51 1008.2
20260501205709 88 293 4.0 7.0 0.00 0.06 0.00 51 1008.4
20260501205212 88 268 2.0 7.0 0.00 0.06 0.00 53 1008.4
20260501203713 87 70 3.0 4.0 0.00 0.06 0.00 55 1008.5
20260501203221 87 95 3.0 5.0 0.00 0.06 0.00 56 1008.6
20260501202720 86 51 3.0 5.0 0.00 0.06 0.00 57 1008.7
20260501201721 86 70 4.0 8.0 0.00 0.06 0.00 56 1008.7
20260501201225 86 49 7.0 8.0 0.00 0.06 0.00 58 1008.7
20260501200230 86 69 5.0 5.0 0.00 0.06 0.00 57 1008.8
20260501195720 86 59 4.0 8.0 0.00 0.06 0.00 60 1008.9
20260501193729 85 60 4.0 7.0 0.00 0.06 0.00 59 1009.3
20260501193219 85 54 4.0 6.0 0.00 0.06 0.00 59 1009.4
20260501192711 85 59 4.0 6.0 0.00 0.06 0.00 58 1009.6
20260501191220 84 69 4.0 7.0 0.00 0.06 0.00 64 1010.0
20260501190722 84 52 5.0 7.0 0.00 0.06 0.00 59 1010.1
20260501190220 84 76 3.0 5.0 0.00 0.06 0.00 62 1010.2
20260501185215 84 34 2.0 4.0 0.00 0.06 0.00 60 1010.3
20260501184721 84 47 3.0 5.0 0.00 0.06 0.00 61 1010.3
20260501184205 84 59 4.0 5.0 0.00 0.06 0.00 61 1010.4
20260501183731 84 49 4.0 5.0 0.00 0.06 0.00 61 1010.5
20260501183215 84 33 4.0 5.0 0.00 0.06 0.00 64 1010.5
20260501182710 83 30 4.0 5.0 0.00 0.06 0.00 62 1010.5
20260501182220 83 56 2.0 5.0 0.00 0.06 0.00 63 1010.6
20260501181720 83 32 3.0 7.0 0.00 0.06 0.00 62 1010.6
20260501181214 83 32 5.0 7.0 0.00 0.06 0.00 63 1010.7
20260501180712 83 25 6.0 8.0 0.00 0.06 0.00 64 1010.9
20260501180222 83 351 5.0 9.0 0.00 0.06 0.00 66 1011.0
20260501175726 83 336 8.0 9.0 0.00 0.06 0.00 64 1011.1
20260501174710 82 23 5.0 7.0 0.00 0.06 0.00 65 1011.0
20260501173747 83 4 4.0 6.0 0.00 0.06 0.00 66 1011.2
20260501173224 82 2 3.0 5.0 0.00 0.06 0.00 65 1011.3
20260501172714 82 14 4.0 5.0 0.00 0.06 0.00 64 1011.4
20260501172213 82 16 4.0 5.0 0.00 0.06 0.00 65 1011.4
20260501171731 82 28 2.0 5.0 0.00 0.06 0.00 66 1011.5
20260501171212 81 16 4.0 6.0 0.00 0.06 0.00 66 1011.6